TimeEST,TemperatureF,Dew PointF,Humidity,Sea Level PressureIn,VisibilityMPH,Wind Direction,Wind SpeedMPH,Gust SpeedMPH,PrecipitationIn,Events,Conditions,WindDirDegrees,DateUTC
12:14 AM,30.2,23.0,75,30.11,10.0,West,12.7,-,N/A,,Overcast,270,2013-12-16 05:14:00
12:35 AM,30.2,24.8,80,30.11,7.0,WSW,6.9,-,N/A,Snow,Light Snow,250,2013-12-16 05:35:00
12:54 AM,30.2,26.6,86,30.11,4.0,WSW,5.8,-,N/A,Snow,Light Snow,250,2013-12-16 05:54:00
1:14 AM,30.2,26.6,86,30.10,7.0,WSW,5.8,-,N/A,Snow,Light Snow,240,2013-12-16 06:14:00
1:35 AM,30.2,26.6,86,30.10,7.0,WSW,6.9,-,N/A,Snow,Light Snow,240,2013-12-16 06:35:00
1:54 AM,30.2,26.6,86,30.10,3.0,WSW,4.6,-,N/A,Snow,Light Snow,240,2013-12-16 06:54:00
2:14 AM,30.2,28.4,93,30.10,3.0,SW,3.5,-,N/A,Snow,Light Snow,230,2013-12-16 07:14:00
2:35 AM,30.2,28.4,93,30.10,1.8,SW,4.6,-,N/A,Snow,Light Snow,230,2013-12-16 07:35:00
2:54 AM,30.2,28.4,93,30.11,1.8,SW,4.6,-,N/A,Snow,Light Snow,230,2013-12-16 07:54:00
3:14 AM,30.2,28.4,93,30.10,2.5,SW,4.6,-,N/A,Snow,Light Snow,220,2013-12-16 08:14:00
3:35 AM,30.2,28.4,93,30.10,4.0,SW,4.6,-,N/A,Snow,Light Snow,220,2013-12-16 08:35:00
3:54 AM,30.2,28.4,93,30.10,1.8,SW,3.5,-,N/A,Snow,Light Snow,220,2013-12-16 08:54:00
4:14 AM,30.2,28.4,93,30.10,2.5,SSW,3.5,-,N/A,Snow,Light Snow,210,2013-12-16 09:14:00
4:35 AM,30.2,30.2,100,30.10,3.0,SSW,3.5,-,N/A,Snow,Light Snow,210,2013-12-16 09:35:00
4:54 AM,30.2,30.2,100,30.09,3.0,Calm,Calm,-,N/A,Snow,Light Snow,0,2013-12-16 09:54:00
5:14 AM,30.2,30.2,100,30.09,2.5,SSW,3.5,-,N/A,Snow,Light Snow,200,2013-12-16 10:14:00
5:34 AM,30.2,30.2,100,30.09,2.0,Calm,Calm,-,N/A,Snow,Light Snow,0,2013-12-16 10:34:00
5:54 AM,30.2,30.2,100,30.09,1.8,SSW,3.5,-,N/A,Snow,Light Snow,200,2013-12-16 10:54:00
6:15 AM,30.2,30.2,100,30.08,2.5,Calm,Calm,-,N/A,Snow,Light Snow,0,2013-12-16 11:15:00
6:34 AM,30.2,30.2,100,30.08,2.5,South,3.5,-,N/A,Snow,Light Snow,190,2013-12-16 11:34:00
6:54 AM,30.2,30.2,100,30.08,2.5,Calm,Calm,-,N/A,Snow,Light Snow,0,2013-12-16 11:54:00
7:15 AM,32.0,30.2,93,30.09,4.0,SSW,3.5,-,N/A,Snow,Light Snow,200,2013-12-16 12:15:00
7:34 AM,32.0,30.2,93,30.10,5.0,SSW,3.5,-,N/A,Snow,Light Snow,210,2013-12-16 12:34:00
7:54 AM,32.0,30.2,93,30.10,5.0,SSW,3.5,-,N/A,Snow,Light Snow,200,2013-12-16 12:54:00
8:15 AM,32.0,32.0,100,30.10,5.0,SSW,3.5,-,N/A,Snow,Light Snow,210,2013-12-16 13:15:00
8:34 AM,32.0,32.0,100,30.10,5.0,SSW,3.5,-,N/A,,Overcast,200,2013-12-16 13:34:00
8:54 AM,32.0,32.0,100,30.10,5.0,South,3.5,-,N/A,,Overcast,190,2013-12-16 13:54:00
9:15 AM,32.0,32.0,100,30.10,3.0,SSW,4.6,-,N/A,Snow,Light Snow,200,2013-12-16 14:15:00
9:34 AM,32.0,32.0,100,30.10,4.0,SSW,3.5,-,N/A,Snow,Light Snow,200,2013-12-16 14:34:00
9:54 AM,32.0,32.0,100,30.11,5.0,SSW,5.8,-,N/A,Snow,Light Snow,200,2013-12-16 14:54:00
10:15 AM,32.0,32.0,100,30.11,4.0,SSW,3.5,-,N/A,Snow,Light Snow,210,2013-12-16 15:15:00
10:34 AM,32.0,32.0,100,30.10,5.0,SSW,4.6,-,N/A,Snow,Light Snow,200,2013-12-16 15:34:00
10:54 AM,32.0,32.0,100,30.10,2.5,South,3.5,-,N/A,Snow,Light Snow,190,2013-12-16 15:54:00
11:15 AM,33.8,32.0,93,30.10,5.0,SW,3.5,-,N/A,Snow,Light Snow,220,2013-12-16 16:15:00
11:34 AM,33.8,32.0,93,30.09,7.0,SW,4.6,-,N/A,,Overcast,220,2013-12-16 16:34:00
11:54 AM,33.8,32.0,93,30.08,7.0,SW,5.8,-,N/A,,Overcast,220,2013-12-16 16:54:00
12:15 PM,33.8,32.0,93,30.07,7.0,SSW,4.6,-,N/A,,Overcast,210,2013-12-16 17:15:00
12:34 PM,33.8,32.0,93,30.07,7.0,SW,3.5,-,N/A,,Overcast,230,2013-12-16 17:34:00
12:54 PM,35.6,32.0,87,30.06,7.0,SW,3.5,-,N/A,,Overcast,230,2013-12-16 17:54:00
1:15 PM,35.6,32.0,87,30.05,7.0,SW,3.5,-,N/A,,Overcast,220,2013-12-16 18:15:00
1:34 PM,35.6,32.0,87,30.04,7.0,SW,3.5,-,N/A,,Overcast,220,2013-12-16 18:34:00
1:54 PM,35.6,32.0,87,30.03,7.0,SSW,3.5,-,N/A,,Overcast,210,2013-12-16 18:54:00
2:15 PM,35.6,32.0,87,30.03,7.0,WSW,4.6,-,N/A,,Overcast,240,2013-12-16 19:15:00
2:34 PM,35.6,32.0,87,30.03,7.0,Calm,Calm,-,N/A,,Overcast,0,2013-12-16 19:34:00
2:54 PM,35.6,32.0,87,30.02,10.0,SSW,4.6,-,N/A,,Overcast,200,2013-12-16 19:54:00
3:15 PM,35.6,32.0,87,30.02,10.0,SSW,4.6,-,N/A,,Overcast,200,2013-12-16 20:15:00
3:34 PM,35.6,32.0,87,30.03,10.0,Calm,Calm,-,N/A,,Overcast,0,2013-12-16 20:34:00
3:54 PM,35.6,32.0,87,30.04,7.0,Calm,Calm,-,N/A,,Overcast,0,2013-12-16 20:54:00
4:15 PM,35.6,32.0,87,30.05,7.0,Calm,Calm,-,N/A,,Overcast,0,2013-12-16 21:15:00
4:34 PM,35.6,32.0,87,30.05,7.0,Calm,Calm,-,N/A,,Overcast,0,2013-12-16 21:34:00
4:55 PM,35.6,32.0,87,30.05,7.0,Calm,Calm,-,N/A,,Overcast,0,2013-12-16 21:55:00
5:14 PM,35.6,32.0,87,30.04,10.0,SE,3.5,-,N/A,,Overcast,140,2013-12-16 22:14:00
5:34 PM,35.6,32.0,87,30.03,10.0,Calm,Calm,-,N/A,,Overcast,0,2013-12-16 22:34:00
5:55 PM,35.6,32.0,87,30.04,10.0,Calm,Calm,-,N/A,,Overcast,0,2013-12-16 22:55:00
6:14 PM,35.6,32.0,87,30.05,10.0,Calm,Calm,-,N/A,,Overcast,0,2013-12-16 23:14:00
6:34 PM,35.6,32.0,87,30.05,10.0,Calm,Calm,-,N/A,,Overcast,0,2013-12-16 23:34:00
6:55 PM,35.6,32.0,87,30.03,7.0,SE,3.5,-,N/A,,Overcast,130,2013-12-16 23:55:00
7:14 PM,35.6,32.0,87,30.04,10.0,SE,3.5,-,N/A,,Overcast,140,2013-12-17 00:14:00
7:34 PM,35.6,32.0,87,30.04,10.0,SSE,3.5,-,N/A,,Overcast,150,2013-12-17 00:34:00
7:55 PM,35.6,32.0,87,30.03,10.0,Calm,Calm,-,N/A,,Overcast,0,2013-12-17 00:55:00
8:14 PM,35.6,32.0,87,30.03,7.0,South,3.5,-,N/A,,Overcast,170,2013-12-17 01:14:00
8:34 PM,35.6,32.0,87,30.03,7.0,SSE,3.5,-,N/A,,Overcast,160,2013-12-17 01:34:00
8:55 PM,33.8,32.0,93,30.02,7.0,Calm,Calm,-,N/A,,Mostly Cloudy,0,2013-12-17 01:55:00
9:14 PM,33.8,32.0,93,30.02,7.0,Calm,Calm,-,N/A,,Scattered Clouds,0,2013-12-17 02:14:00
9:34 PM,33.8,32.0,93,30.00,7.0,SSE,3.5,-,N/A,,Clear,150,2013-12-17 02:34:00
9:55 PM,33.8,32.0,93,30.00,7.0,South,4.6,-,N/A,,Mostly Cloudy,180,2013-12-17 02:55:00
10:14 PM,33.8,32.0,93,30.00,7.0,Calm,Calm,-,N/A,,Scattered Clouds,0,2013-12-17 03:14:00
10:34 PM,35.6,33.8,93,30.01,10.0,SW,3.5,-,N/A,,Clear,220,2013-12-17 03:34:00
10:55 PM,35.6,33.8,93,30.01,10.0,SW,5.8,-,N/A,,Scattered Clouds,220,2013-12-17 03:55:00
11:14 PM,35.6,33.8,93,30.00,10.0,SW,9.2,-,N/A,,Scattered Clouds,230,2013-12-17 04:14:00
11:34 PM,35.6,33.8,93,30.00,10.0,SW,8.1,-,N/A,,Scattered Clouds,230,2013-12-17 04:34:00
11:54 PM,35.6,33.8,93,30.00,10.0,SW,6.9,-,N/A,,Scattered Clouds,230,2013-12-17 04:54:00